ABR727G LSGG-EBLG

Flight info

Callsign ABR727G
Flight time 0h 49m
Altitude 30000
Route ARBOS DCT PENDU DCT ROUSY M624 DIK N852 GESLO
Aircraft B738/M-SDE2E3FGHIRWXY/LB1

Departure

Time 2026-04-23 16:36
Airport Geneva International Airport (LSGG)

Arrival

Time 2026-04-23 17:26
Airport Liège Airport (EBLG)
Time Latitude Longitude Altitude Speed Heading
2026-04-23 16:12 46.23132 6.10699 1392 ft 0 kts 136°
2026-04-23 16:22 46.23135 6.10696 1392 ft 3 kts 126°
2026-04-23 16:22 46.23145 6.10679 1405 ft 3 kts 141°
2026-04-23 16:22 46.23160 6.10667 1392 ft 3 kts 184°
2026-04-23 16:23 46.23177 6.10675 1397 ft 3 kts 221°
2026-04-23 16:23 46.23185 6.10687 1403 ft 0 kts 225°
2026-04-23 16:27 46.23185 6.10686 1403 ft 0 kts 225°
2026-04-23 16:27 46.23171 6.10666 1399 ft 5 kts 225°
2026-04-23 16:27 46.23142 6.10624 1393 ft 7 kts 225°
2026-04-23 16:27 46.23105 6.10569 1398 ft 8 kts 225°
2026-04-23 16:28 46.23061 6.10506 1392 ft 9 kts 225°
2026-04-23 16:28 46.23014 6.10437 1394 ft 10 kts 225°
2026-04-23 16:28 46.22968 6.10368 1392 ft 8 kts 225°
2026-04-23 16:28 46.22959 6.10297 1392 ft 8 kts 306°
2026-04-23 16:29 46.23000 6.10238 1396 ft 9 kts 316°
2026-04-23 16:29 46.23044 6.10176 1395 ft 8 kts 315°
2026-04-23 16:29 46.23039 6.10104 1393 ft 8 kts 228°
2026-04-23 16:29 46.22991 6.10033 1401 ft 11 kts 226°
2026-04-23 16:30 46.22937 6.09952 1398 ft 11 kts 225°
2026-04-23 16:30 46.22883 6.09873 1394 ft 11 kts 225°
2026-04-23 16:30 46.22828 6.09793 1394 ft 11 kts 225°
2026-04-23 16:30 46.22769 6.09707 1397 ft 13 kts 226°
2026-04-23 16:31 46.22709 6.09617 1394 ft 12 kts 225°
2026-04-23 16:31 46.22649 6.09530 1394 ft 12 kts 226°
2026-04-23 16:31 46.22589 6.09440 1395 ft 12 kts 229°
2026-04-23 16:31 46.22555 6.09349 1404 ft 7 kts 255°
2026-04-23 16:32 46.22550 6.09281 1412 ft 4 kts 268°
2026-04-23 16:32 46.22550 6.09263 1407 ft 0 kts 270°
2026-04-23 16:33 46.22551 6.09231 1411 ft 6 kts 275°
2026-04-23 16:34 46.22573 6.09161 1415 ft 8 kts 317°
2026-04-23 16:34 46.22623 6.09157 1415 ft 8 kts 32°
2026-04-23 16:34 46.22651 6.09200 1419 ft 2 kts 47°
2026-04-23 16:34 46.22658 6.09210 1417 ft 1 kts 46°
2026-04-23 16:35 46.22665 6.09221 1419 ft 2 kts 46°
2026-04-23 16:35 46.22673 6.09232 1416 ft 2 kts 45°
2026-04-23 16:35 46.22681 6.09244 1417 ft 2 kts 45°
2026-04-23 16:35 46.22728 6.09312 1416 ft 35 kts 46°
2026-04-23 16:36 46.23089 6.09842 1409 ft 111 kts 45°
2026-04-23 16:36 46.23780 6.10864 1485 ft 164 kts 45°
2026-04-23 16:36 46.24560 6.12055 2314 ft 164 kts 47°
2026-04-23 16:36 46.25355 6.13263 3256 ft 167 kts 45°
2026-04-23 16:37 46.26171 6.14484 4067 ft 171 kts 46°
2026-04-23 16:37 46.27006 6.15713 4983 ft 171 kts 45°
2026-04-23 16:37 46.27838 6.16919 5863 ft 171 kts 44°
2026-04-23 16:37 46.28704 6.18149 6568 ft 183 kts 44°
2026-04-23 16:38 46.29660 6.19488 7139 ft 195 kts 43°
2026-04-23 16:38 46.30638 6.20841 7915 ft 194 kts 43°
2026-04-23 16:38 46.31646 6.22227 8436 ft 207 kts 44°
2026-04-23 16:38 46.32718 6.23733 8851 ft 224 kts 45°
2026-04-23 16:39 46.33876 6.25471 9067 ft 254 kts 47°
2026-04-23 16:39 46.35107 6.27401 9502 ft 268 kts 45°
2026-04-23 16:39 46.36696 6.28877 10142 ft 282 kts 18°
2026-04-23 16:39 46.38680 6.29143 10712 ft 294 kts 353°
2026-04-23 16:40 46.40671 6.28708 11576 ft 294 kts 355°
2026-04-23 16:40 46.42723 6.28577 12438 ft 295 kts 359°
2026-04-23 16:40 46.44761 6.28508 13387 ft 295 kts
2026-04-23 16:40 46.46886 6.28509 13692 ft 318 kts
2026-04-23 16:41 46.49182 6.28532 13907 ft 341 kts
2026-04-23 16:41 46.51618 6.28551 14309 ft 355 kts
2026-04-23 16:41 46.54097 6.28561 15090 ft 355 kts
2026-04-23 16:41 46.56564 6.28563 15975 ft 355 kts
2026-04-23 16:42 46.59021 6.28562 16622 ft 361 kts
2026-04-23 16:42 46.61513 6.28560 17600 ft 356 kts 360°
2026-04-23 16:42 46.63991 6.28558 18414 ft 358 kts 359°
2026-04-23 16:42 46.66487 6.28315 18975 ft 363 kts 347°
2026-04-23 16:43 46.68849 6.27037 19617 ft 364 kts 333°
2026-04-23 16:43 46.71079 6.25249 20228 ft 368 kts 330°
2026-04-23 16:43 46.73310 6.23365 20752 ft 374 kts 330°
2026-04-23 16:43 46.75572 6.21451 21311 ft 377 kts 330°
2026-04-23 16:44 46.77854 6.19545 21962 ft 378 kts 330°
2026-04-23 16:44 46.80149 6.17654 22636 ft 379 kts 330°
2026-04-23 16:44 46.82421 6.15791 23243 ft 381 kts 330°
2026-04-23 16:44 46.84733 6.13898 23836 ft 382 kts 330°
2026-04-23 16:45 46.87056 6.11993 24321 ft 384 kts 330°
2026-04-23 16:45 46.89392 6.10074 24769 ft 386 kts 330°
2026-04-23 16:45 46.91743 6.08141 25206 ft 389 kts 330°
2026-04-23 16:45 46.94108 6.06194 25677 ft 390 kts 329°
2026-04-23 16:46 46.96482 6.04252 26152 ft 392 kts 332°
2026-04-23 16:46 46.99052 6.02878 26552 ft 398 kts 346°
2026-04-23 16:46 47.01828 6.02511 26976 ft 404 kts 356°
2026-04-23 16:46 47.04614 6.02544 27402 ft 407 kts 357°
2026-04-23 16:47 47.07448 6.02651 27809 ft 409 kts 358°
2026-04-23 16:47 47.10296 6.02763 28245 ft 409 kts 357°
2026-04-23 16:47 47.13136 6.02857 28806 ft 407 kts 357°
2026-04-23 16:47 47.15964 6.02930 29352 ft 406 kts 356°
2026-04-23 16:48 47.18777 6.02989 29906 ft 404 kts 356°
2026-04-23 16:48 47.21589 6.03039 30231 ft 406 kts 356°
2026-04-23 16:48 47.27340 6.03130 30241 ft 420 kts 356°
2026-04-23 16:49 47.33222 6.03231 30244 ft 430 kts 356°
2026-04-23 16:49 47.39206 6.03387 30232 ft 430 kts 357°
2026-04-23 16:50 47.45189 6.03623 30232 ft 430 kts 357°
2026-04-23 16:50 47.51158 6.03863 30245 ft 429 kts 357°
2026-04-23 16:51 47.57120 6.04091 30243 ft 428 kts 357°
2026-04-23 16:51 47.63032 6.04314 30243 ft 428 kts 357°
2026-04-23 16:52 47.68981 6.04537 30245 ft 428 kts 358°
2026-04-23 16:52 47.74931 6.04760 30246 ft 428 kts 358°
2026-04-23 16:53 47.80885 6.04985 30240 ft 428 kts 358°
2026-04-23 16:53 47.86802 6.05209 30247 ft 428 kts 358°
2026-04-23 16:54 47.92768 6.05435 30249 ft 429 kts 358°
2026-04-23 16:54 47.98749 6.05662 30261 ft 430 kts 358°
2026-04-23 16:55 48.04742 6.05891 30259 ft 431 kts 358°
2026-04-23 16:55 48.10704 6.06119 30274 ft 432 kts 359°
2026-04-23 16:56 48.16719 6.06349 30267 ft 433 kts 359°
2026-04-23 16:56 48.22736 6.06580 30277 ft 433 kts 359°
2026-04-23 16:57 48.28758 6.06811 30274 ft 433 kts 359°
2026-04-23 16:57 48.34740 6.07042 30278 ft 433 kts 359°
2026-04-23 16:58 48.40757 6.07275 30261 ft 432 kts 359°
2026-04-23 16:58 48.46763 6.07508 30294 ft 432 kts 359°
2026-04-23 16:59 48.52763 6.07741 30292 ft 431 kts 359°
2026-04-23 16:59 48.58715 6.07972 30302 ft 430 kts 359°
2026-04-23 17:00 48.64699 6.08206 30292 ft 430 kts 359°
2026-04-23 17:00 48.70677 6.08438 30299 ft 429 kts 359°
2026-04-23 17:01 48.76639 6.08672 30290 ft 429 kts 359°
2026-04-23 17:01 48.82612 6.08907 30298 ft 430 kts 360°
2026-04-23 17:02 48.88556 6.09141 30290 ft 431 kts 360°
2026-04-23 17:02 48.94554 6.09378 30284 ft 431 kts
2026-04-23 17:03 49.00555 6.09616 30298 ft 432 kts
2026-04-23 17:03 49.06566 6.09854 30282 ft 432 kts
2026-04-23 17:04 49.12545 6.10092 30295 ft 433 kts
2026-04-23 17:04 49.18573 6.10332 30284 ft 434 kts
2026-04-23 17:05 49.24552 6.10572 30284 ft 420 kts
2026-04-23 17:05 49.30342 6.10805 30292 ft 415 kts
2026-04-23 17:06 49.36087 6.11034 30245 ft 412 kts
2026-04-23 17:06 49.38924 6.11148 29665 ft 406 kts
2026-04-23 17:06 49.41755 6.11262 28917 ft 408 kts
2026-04-23 17:07 49.44630 6.11378 28232 ft 419 kts
2026-04-23 17:07 49.47571 6.11497 27543 ft 426 kts
2026-04-23 17:07 49.50550 6.11614 26865 ft 429 kts
2026-04-23 17:07 49.53534 6.11727 26199 ft 429 kts
2026-04-23 17:08 49.56522 6.11840 25549 ft 430 kts
2026-04-23 17:08 49.59478 6.11951 24927 ft 431 kts
2026-04-23 17:08 49.62473 6.12065 24306 ft 431 kts
2026-04-23 17:08 49.65481 6.12180 23669 ft 435 kts
2026-04-23 17:09 49.68527 6.12298 22947 ft 440 kts
2026-04-23 17:09 49.71601 6.12417 22246 ft 443 kts
2026-04-23 17:09 49.74679 6.12534 21558 ft 441 kts
2026-04-23 17:09 49.77729 6.12650 20898 ft 436 kts
2026-04-23 17:10 49.80741 6.12765 20227 ft 429 kts
2026-04-23 17:10 49.83697 6.12839 19582 ft 422 kts
2026-04-23 17:10 49.86559 6.12390 18960 ft 417 kts 353°
2026-04-23 17:10 49.89356 6.11280 18306 ft 414 kts 343°
2026-04-23 17:11 49.92034 6.09690 17616 ft 409 kts 342°
2026-04-23 17:11 49.94672 6.08117 16941 ft 403 kts 342°
2026-04-23 17:11 49.97244 6.06617 16248 ft 387 kts 342°
2026-04-23 17:11 49.99747 6.05182 15598 ft 382 kts 342°
2026-04-23 17:12 50.01398 6.04240 15180 ft 381 kts 342°
2026-04-23 17:12 50.03880 6.02820 14546 ft 379 kts 342°
2026-04-23 17:12 50.07047 6.00559 13669 ft 381 kts 329°
2026-04-23 17:12 50.09112 5.97978 12981 ft 383 kts 317°
2026-04-23 17:13 50.10817 5.94788 12324 ft 383 kts 309°
2026-04-23 17:13 50.12408 5.91479 11682 ft 381 kts 309°
2026-04-23 17:13 50.13984 5.88168 11034 ft 380 kts 308°
2026-04-23 17:13 50.15554 5.84870 10402 ft 378 kts 308°
2026-04-23 17:14 50.16592 5.82700 9972 ft 377 kts 308°
2026-04-23 17:14 50.18160 5.79430 9280 ft 375 kts 308°
2026-04-23 17:14 50.19724 5.76179 8613 ft 374 kts 308°
2026-04-23 17:14 50.21786 5.71898 7751 ft 372 kts 308°
2026-04-23 17:15 50.23336 5.68679 7115 ft 370 kts 308°
2026-04-23 17:15 50.24359 5.66555 6701 ft 369 kts 308°
2026-04-23 17:15 50.25890 5.63371 6235 ft 363 kts 308°
2026-04-23 17:15 50.27361 5.60305 6051 ft 340 kts 308°
2026-04-23 17:16 50.28724 5.57460 5990 ft 314 kts 308°
2026-04-23 17:16 50.29983 5.54829 5977 ft 291 kts 308°
2026-04-23 17:16 50.31149 5.52392 5970 ft 269 kts 308°
2026-04-23 17:16 50.32239 5.50118 5958 ft 255 kts 309°
2026-04-23 17:17 50.33279 5.47947 5803 ft 245 kts 309°
2026-04-23 17:17 50.34293 5.45825 5621 ft 243 kts 309°
2026-04-23 17:17 50.35291 5.43734 5396 ft 243 kts 309°
2026-04-23 17:17 50.36304 5.41614 5172 ft 243 kts 309°
2026-04-23 17:18 50.38336 5.37351 4671 ft 245 kts 309°
2026-04-23 17:18 50.39355 5.35207 4421 ft 245 kts 309°
2026-04-23 17:18 50.40374 5.33063 4158 ft 245 kts 309°
2026-04-23 17:19 50.41395 5.30921 3921 ft 245 kts 310°
2026-04-23 17:19 50.42540 5.28950 3677 ft 244 kts 319°
2026-04-23 17:19 50.43759 5.27105 3416 ft 243 kts 319°
2026-04-23 17:19 50.44961 5.25286 3162 ft 243 kts 319°
2026-04-23 17:20 50.46165 5.23439 3030 ft 240 kts 319°
2026-04-23 17:20 50.48902 5.21722 2990 ft 203 kts 20°
2026-04-23 17:21 50.50961 5.24075 3005 ft 175 kts 47°
2026-04-23 17:21 50.51803 5.25445 2994 ft 173 kts 47°
2026-04-23 17:21 50.53473 5.28127 2988 ft 169 kts 47°
2026-04-23 17:22 50.54283 5.29409 2964 ft 160 kts 47°
2026-04-23 17:22 50.55766 5.31765 2631 ft 150 kts 47°
2026-04-23 17:23 50.57180 5.34004 2275 ft 135 kts 46°
2026-04-23 17:23 50.57827 5.35035 2066 ft 130 kts 47°
2026-04-23 17:23 50.59064 5.37149 1778 ft 134 kts 47°
2026-04-23 17:24 50.59735 5.38155 1684 ft 133 kts 44°
2026-04-23 17:24 50.60410 5.39169 1501 ft 135 kts 47°
2026-04-23 17:24 50.61727 5.41255 1092 ft 136 kts 44°
2026-04-23 17:25 50.63059 5.43336 657 ft 132 kts 45°
2026-04-23 17:25 50.63633 5.44240 624 ft 99 kts 45°
2026-04-23 17:26 50.64266 5.45243 597 ft 41 kts 45°
2026-04-23 17:26 50.64390 5.45596 607 ft 15 kts 91°
2026-04-23 17:27 50.64320 5.45690 625 ft 9 kts 219°
2026-04-23 17:27 50.64269 5.45613 615 ft 11 kts 225°
2026-04-23 17:27 50.64214 5.45526 614 ft 12 kts 225°
2026-04-23 17:27 50.64158 5.45436 620 ft 12 kts 225°
2026-04-23 17:28 50.64102 5.45346 624 ft 12 kts 225°
2026-04-23 17:28 50.64044 5.45255 618 ft 12 kts 225°
2026-04-23 17:28 50.63984 5.45160 614 ft 12 kts 225°
2026-04-23 17:28 50.63923 5.45063 615 ft 13 kts 226°
2026-04-23 17:29 50.63858 5.44959 615 ft 13 kts 225°
2026-04-23 17:29 50.63794 5.44858 615 ft 11 kts 225°
2026-04-23 17:29 50.63736 5.44813 620 ft 4 kts 142°
2026-04-23 17:30 50.63714 5.44846 620 ft 4 kts 135°
2026-04-23 17:30 50.63698 5.44871 621 ft 0 kts 135°